Location: *
(43.0833°N, 13.0500°E)
Time: 02:54:22
(UTC+00:00)

SKYMED 2 - Pass Details

Date: 15 November 2019
Orbit: 621 x 623 km, 97.9° (Epoch: 08 December)

Event Time Altitude Azimuth Distance (km) Brightness Sun altitude
Exits shadow 17:08:54 - 14° (NNE) 2,804 6.7 -15.5°
Reaches altitude 10° 17:10:51 10° 16° (NNE) 2,001 5.9 -15.8°
Maximum altitude 17:15:12 74° 102° (ESE) 651 3.4 -16.6°
Drops below altitude 10° 17:19:31 10° 188° (S) 1,984 6.4 -17.4°
Sets 17:21:42 0° 190° (S) 2,885 7.2 -17.8°
